Location: El Centro
(32.7920°N, 115.5620°W)
Time: 12:21:57
(UTC-08:00)

Amateur Radio Satellites - All Passes

Search period start: 29 January 2015 11:51
Search period end: 30 January 2015 11:51
Location: El Centro, 32.7920°N, 115.5620°W

Satellite Date Start Highest point End Downlink Frequencies (MHz)
Time Altitude Azimuth
AIST 2 29 Jan 11:55:41 11:59:58 84° 240° (WSW) 12:04:09 435.215
BEESAT 2 29 Jan 11:59:36 12:03:09 27° 248° (WSW) 12:06:35 435.950
TISAT 1 29 Jan 12:04:50 12:09:08 76° 284° (WNW) 12:13:24 437.305
GONETS M04 29 Jan 12:05:00 12:13:40 70° 81° (E) 12:22:20
Gurwin Techsat 1B 29 Jan 12:14:05 12:15:56 12° 66° (ENE) 12:18:07 435.225
BEESAT 3 29 Jan 12:14:22 12:17:00 16° 250° (WSW) 12:19:26 437.485
PHONESAT 2.4 29 Jan 12:23:43 12:26:59 31° 13° (NNE) 12:30:17 2401.200-2431.200
RS-15 29 Jan 12:27:42 12:37:40 35° 47° (NE) 12:48:17 29.354- 29.394
SWISSCUBE 29 Jan 12:34:39 12:38:50 31° 97° (E) 12:43:06 437.505
Oscar 19 29 Jan 12:35:06 12:40:19 85° 257° (WSW) 12:45:33 437.125/150
PCSat 29 Jan 12:37:57 12:42:33 28° 56° (NE) 12:47:13 145.827
BEESAT 29 Jan 12:50:10 12:54:41 42° 99° (E) 12:59:13 436.000
ITAMSAT 1 29 Jan 12:52:00 12:56:53 46° 73° (ENE) 13:01:51 435.822/435.867
ITUPSAT 1 29 Jan 12:54:07 12:58:44 46° 99° (E) 13:03:20 437.325
VERMONT LUNAR 29 Jan 13:01:45 13:05:16 73° 25° (NNE) 13:08:47 437.305
SPROUT 29 Jan 13:05:47 13:08:19 15° 291° (WNW) 13:10:40 437.525
KKS-1 29 Jan 13:10:10 13:11:04 11° 90° (E) 13:12:18 437.445
Gurwin Techsat 1B 29 Jan 13:50:06 13:55:24 70° 258° (WSW) 14:00:42 435.225
HORYU 2 29 Jan 13:51:16 13:55:16 33° 73° (ENE) 13:59:21 437.375
PHONESAT 2.4 29 Jan 14:02:08 14:05:46 71° 209° (SSW) 14:09:24 2401.200-2431.200
GONETS M04 29 Jan 14:03:51 14:09:48 20° 276° (W) 14:15:17
SWISSCUBE 29 Jan 14:12:52 14:16:34 22° 290° (WNW) 14:20:09 437.505
AO-7 29 Jan 14:16:53 14:24:35 44° 67° (ENE) 14:32:24 29.400- 29.500
PCSat 29 Jan 14:21:10 14:25:59 32° 251° (WSW) 14:30:41 145.827
BEESAT 29 Jan 14:29:12 14:32:15 16° 292° (WNW) 14:35:05 436.000
JAS-2 29 Jan 14:32:04 14:35:03 15° 68° (ENE) 14:38:12 435.910
ITAMSAT 1 29 Jan 14:33:18 14:36:40 17° 268° (W) 14:39:49 435.822/435.867
ITUPSAT 1 29 Jan 14:33:27 14:36:18 15° 292° (WNW) 14:38:56 437.325
STARS 29 Jan 14:36:37 14:41:05 80° 102° (ESE) 14:45:29 437.465
RS-15 29 Jan 14:39:33 14:50:53 65° 247° (WSW) 15:02:39 29.354- 29.394
VERMONT LUNAR 29 Jan 14:40:41 14:43:08 17° 217° (SW) 14:45:31 437.305
DANDE 29 Jan 14:42:06 14:48:07 46° 75° (ENE) 14:52:35 436.750
KKS-1 29 Jan 14:43:45 14:48:07 53° 285° (WNW) 14:52:27 437.445
JUGNU 29 Jan 14:58:23 14:59:15 10° 163° (SSE) 15:00:15 437.505
M-CUBED/EXP-1 PRIME 29 Jan 15:00:16 15:03:33 53° 105° (ESE) 15:06:58 437.505
CUSAT 1 29 Jan 15:09:38 15:15:24 73° 265° (W) 15:19:37 437.405
HORYU 2 29 Jan 15:28:57 15:32:04 18° 266° (W) 15:35:00 437.375
O/OREOS (USA 219) 29 Jan 15:31:57 15:36:25 86° 109° (ESE) 15:40:57 437.305
AUBIESAT-1 29 Jan 15:33:13 15:36:29 52° 289° (WNW) 15:39:53 437.475
PHONESAT 2.4 29 Jan 15:42:55 15:43:58 11° 220° (SW) 15:44:51 2401.200-2431.200
AO-7 29 Jan 16:09:55 16:17:28 36° 262° (W) 16:24:53 29.400- 29.500
JAS-2 29 Jan 16:14:25 16:19:57 51° 260° (W) 16:25:04 435.910
MOZHAYETS 4 29 Jan 16:25:04 16:29:37 69° 101° (E) 16:34:10
DANDE 29 Jan 16:27:18 16:30:41 15° 278° (W) 16:33:21 436.750
Cubesat XI-IV 29 Jan 16:37:38 16:42:19 34° 71° (ENE) 16:47:06 437.490
JUGNU 29 Jan 16:43:32 16:47:38 19° 171° (S) 16:51:48 437.505
CUTE-I 29 Jan 16:57:01 17:02:07 52° 74° (ENE) 17:07:19 437.470
SRMSAT 29 Jan 17:25:13 17:28:38 16° 167° (SSE) 17:32:07 437.500
PRISM 29 Jan 18:10:05 18:14:15 82° 284° (WNW) 18:18:25 437.425
Cubesat XI-IV 29 Jan 18:18:11 18:22:29 24° 265° (W) 18:26:41 437.490
CUBESAT XI-V 29 Jan 18:18:40 18:23:23 83° 102° (ESE) 18:28:06 437.345
JUGNU 29 Jan 18:31:30 18:36:05 23° 181° (S) 18:40:42 437.505
STRAND 1 29 Jan 18:36:33 18:41:44 82° 102° (ESE) 18:46:54 437.568
CUTE-I 29 Jan 18:39:25 18:42:35 15° 268° (W) 18:45:28 437.470
GOMX 1 29 Jan 18:46:36 18:49:29 16° 67° (ENE) 18:52:40 467.674
SO-50 29 Jan 18:48:13 18:53:03 53° 59° (ENE) 18:57:51 436.795
BRITE-PL 29 Jan 18:52:27 18:56:30 26° 70° (ENE) 19:00:56 437.365/2234.400
DOVE 4 29 Jan 18:56:53 18:59:20 14° 67° (ENE) 19:02:07 437.250
YUBILEINY 29 Jan 18:57:24 19:05:57 69° 93° (E) 19:14:36 435.215
CUTE 1.7 + AOD 2 29 Jan 18:58:40 19:01:25 17° 71° (ENE) 19:04:19 437.475
SRMSAT 29 Jan 19:12:38 19:17:13 23° 176° (S) 19:21:48 437.500
HO-68 29 Jan 19:26:10 19:33:09 60° 72° (ENE) 19:40:10 435.675
SEEDS 29 Jan 19:27:28 19:31:14 32° 74° (ENE) 19:35:03 437.485
CUBEBUG 2 29 Jan 19:48:29 19:51:00 15° 69° (ENE) 19:53:46 437.445
COMPASS 1 29 Jan 19:52:50 19:56:57 54° 76° (ENE) 20:01:05 437.405
ZACube-1 29 Jan 19:55:02 19:56:13 11° 68° (ENE) 19:57:42 437.345
DX 1 29 Jan 19:59:25 20:01:50 15° 69° (ENE) 20:04:27 434.975-435.025
FUNcube-1 29 Jan 20:05:27 20:07:55 15° 69° (ENE) 20:10:36 145.935
CANX-2 29 Jan 20:08:45 20:12:59 57° 260° (W) 20:17:14 2200.000
DELFI C3 29 Jan 20:11:23 20:14:48 27° 73° (ENE) 20:18:17 145.870
CINEMA 3 29 Jan 20:14:28 20:19:12 51° 74° (ENE) 20:24:05 145.822/145.860
AAUSAT CUBESAT 2 29 Jan 20:18:36 20:22:49 82° 258° (WSW) 20:27:02 437.432
JUGNU 29 Jan 20:20:35 20:24:32 18° 191° (S) 20:28:26 437.505
GOMX 1 29 Jan 20:22:16 20:27:07 52° 261° (W) 20:32:18 467.674
UWE-3 29 Jan 20:25:37 20:29:41 31° 73° (ENE) 20:33:53 435.000/436.395/437.385
AISAT 29 Jan 20:27:55 20:29:10 11° 67° (ENE) 20:30:41 437.250
SO-50 29 Jan 20:30:29 20:33:14 14° 251° (WSW) 20:35:43 436.795
BRITE-PL 29 Jan 20:30:33 20:34:55 30° 266° (W) 20:39:30 437.365/2234.400
DOVE 4 29 Jan 20:31:41 20:36:35 58° 261° (W) 20:41:44 437.250
CUTE 1.7 + AOD 2 29 Jan 20:33:17 20:37:09 31° 263° (W) 20:40:58 437.475
ISS 29 Jan 20:35:46 20:39:01 88° 142° (SE) 20:42:19 145.825
Oscar 11 29 Jan 20:36:08 20:40:28 73° 76° (ENE) 20:44:49 145.826/435.025
VELOX 1 29 Jan 20:53:35 20:56:57 22° 71° (ENE) 21:00:27 145.980
YUBILEINY 29 Jan 20:57:17 21:03:40 21° 292° (WNW) 21:09:35 435.215
50 SAT 29 Jan 20:57:51 21:00:56 21° 72° (ENE) 21:04:08 437.505
SRMSAT 29 Jan 21:01:22 21:05:50 22° 186° (S) 21:10:16 437.500
SEEDS 29 Jan 21:04:22 21:07:11 16° 267° (W) 21:09:47 437.485
UKube-1 29 Jan 21:11:51 21:16:10 74° 258° (WSW) 21:20:31 .
HO-68 29 Jan 21:16:05 21:21:21 21° 267° (W) 21:26:18 435.675
CUBEBUG 2 29 Jan 21:22:47 21:27:21 47° 262° (W) 21:31:58 437.445
HUMSAT D 29 Jan 21:25:52 21:30:11 68° 76° (ENE) 21:34:31 437.325/437.525
ZACube-1 29 Jan 21:27:37 21:32:09 60° 260° (W) 21:36:44 437.345
UNISAT 6 29 Jan 21:33:21 21:36:42 22° 94° (E) 21:40:07 437.425
DX 1 29 Jan 21:33:46 21:37:49 37° 262° (W) 21:41:52 434.975-435.025
AIST 1 29 Jan 21:38:29 21:42:28 35° 79° (E) 21:46:30
FUNcube-1 29 Jan 21:39:33 21:43:56 44° 262° (W) 21:48:20 145.935
POPSAT HIP 1 29 Jan 21:42:49 21:45:19 16° 93° (E) 21:48:00 437.405
DUCHIFAT 1 29 Jan 21:44:58 21:47:37 16° 93° (E) 21:50:24 145.980
DELFI C3 29 Jan 21:47:14 21:50:05 18° 266° (W) 21:52:48 145.870
CINEMA 3 29 Jan 21:54:08 21:56:47 14° 270° (W) 21:59:11 145.822/145.860
AISAT 29 Jan 22:01:01 22:05:23 54° 260° (W) 22:09:46 437.250
UWE-3 29 Jan 22:02:45 22:06:17 21° 267° (W) 22:09:43 435.000/436.395/437.385
ESTCUBE 1 29 Jan 22:05:51 22:10:17 65° 75° (ENE) 22:14:44 437.505/2401.250
ANTELSAT 29 Jan 22:08:37 22:12:59 60° 100° (E) 22:17:15 437.575/2403.000
ISS 29 Jan 22:15:01 22:15:58 11° 332° (NNW) 22:16:49 145.825
TIGRISAT 29 Jan 22:15:57 22:20:22 73° 102° (ESE) 22:24:39 435.000
NANOSAT C BR1 29 Jan 22:18:32 22:22:38 43° 99° (E) 22:26:43 145.865
SPROUT 29 Jan 22:19:29 22:22:19 18° 70° (ENE) 22:25:17 437.525
VELOX 1 29 Jan 22:29:42 22:33:26 26° 264° (W) 22:37:07 145.980
50 SAT 29 Jan 22:32:36 22:35:58 23° 265° (W) 22:39:17 437.505
QB50P2 29 Jan 22:33:06 22:37:24 69° 101° (E) 22:41:39 145.880/145.840
CUBEBUG 1 29 Jan 22:35:17 22:39:34 59° 259° (W) 22:43:52 437.445
QB50P1 29 Jan 22:42:10 22:46:30 88° 101° (E) 22:50:47 145.935-145.965
BUGSAT 1 29 Jan 22:50:20 22:54:38 84° 100° (E) 22:58:55 437.445
SRMSAT 29 Jan 22:51:36 22:54:24 13° 195° (SSW) 22:57:06 437.500
TISAT 1 29 Jan 22:52:58 22:56:58 43° 74° (ENE) 23:01:02 437.305
POLYITAN 1 29 Jan 22:57:30 23:01:46 58° 284° (WNW) 23:05:57 437.675
GONETS M04 29 Jan 23:09:11 23:12:48 14° 82° (E) 23:17:07
UNISAT 6 29 Jan 23:09:51 23:13:30 25° 289° (WNW) 23:17:00 437.425
AIST 1 29 Jan 23:17:26 23:19:52 14° 271° (W) 23:22:06
POPSAT HIP 1 29 Jan 23:17:27 23:21:22 34° 287° (WNW) 23:25:13 437.405
DUCHIFAT 1 29 Jan 23:19:43 23:23:35 32° 287° (WNW) 23:27:22 145.980
SWISSCUBE 29 Jan 23:37:40 23:41:14 22° 70° (ENE) 23:44:57 437.505
BEESAT 29 Jan 23:52:47 23:56:50 30° 72° (ENE) 00:01:00 436.000
SPROUT 29 Jan 23:54:22 23:58:13 31° 263° (W) 00:02:03 437.525
NANOSAT C BR1 29 Jan 23:56:06 23:58:10 13° 291° (WNW) 00:00:01 145.865
ITUPSAT 1 29 Jan 23:57:00 00:01:11 32° 72° (ENE) 00:05:27 437.325
BEESAT 2 30 Jan 00:14:43 00:15:48 11° 109° (ESE) 00:17:09 435.950
BEESAT 3 30 Jan 00:26:15 00:29:03 19° 111° (ESE) 00:32:00 437.485
TISAT 1 30 Jan 00:31:25 00:33:05 12° 269° (W) 00:34:29 437.305
Oscar 19 30 Jan 00:51:26 00:56:24 49° 99° (E) 01:01:21 437.125/150
GONETS M04 30 Jan 00:59:53 01:08:41 89° 276° (W) 01:17:28
ITAMSAT 1 30 Jan 01:09:54 01:13:59 24° 95° (E) 01:18:13 435.822/435.867
SWISSCUBE 30 Jan 01:14:47 01:18:59 30° 264° (W) 01:23:07 437.505
STARS 30 Jan 01:29:26 01:33:33 39° 74° (ENE) 01:37:44 437.465
BEESAT 30 Jan 01:30:59 01:34:44 22° 265° (W) 01:38:21 436.000
ITUPSAT 1 30 Jan 01:35:36 01:39:11 20° 266° (W) 01:42:37 437.325
KKS-1 30 Jan 01:37:15 01:41:44 80° 77° (ENE) 01:46:14 437.445
M-CUBED/EXP-1 PRIME 30 Jan 01:45:28 01:49:16 37° 71° (ENE) 01:52:49 437.505
O/OREOS (USA 219) 30 Jan 01:46:17 01:50:54 78° 70° (ENE) 01:55:29 437.305
AIST 2 30 Jan 01:49:33 01:53:43 61° 115° (ESE) 01:57:56 435.215
BEESAT 2 30 Jan 01:49:40 01:53:39 47° 302° (WNW) 01:57:40 435.950
BEESAT 3 30 Jan 02:03:24 02:07:01 29° 305° (NW) 02:10:38 437.485
DANDE 30 Jan 02:06:26 02:10:03 14° 82° (E) 02:14:28 436.750
Gurwin Techsat 1B 30 Jan 02:10:51 02:16:10 69° 101° (E) 02:21:27 435.225
AUBIESAT-1 30 Jan 02:17:38 02:21:46 90° 160° (SSE) 02:25:33 437.475
AO-7 30 Jan 02:25:22 02:30:02 17° 91° (E) 02:35:17 29.400- 29.500
CUSAT 1 30 Jan 02:28:00 02:34:18 27° 87° (E) 02:41:09 437.405
Oscar 19 30 Jan 02:32:11 02:35:24 16° 292° (WNW) 02:38:24 437.125/150
RS-15 30 Jan 02:47:31 02:56:11 30° 107° (ESE) 03:05:13 29.354- 29.394
ITAMSAT 1 30 Jan 02:48:53 02:53:33 33° 289° (WNW) 02:58:09 435.822/435.867
GONETS M04 30 Jan 03:02:12 03:06:56 14° 296° (WNW) 03:11:00
STARS 30 Jan 03:07:42 03:10:15 14° 268° (W) 03:12:35 437.465
ISS 30 Jan 03:08:01 03:09:56 15° 31° (NNE) 03:11:55 145.825
PCSat 30 Jan 03:14:31 03:19:50 63° 113° (ESE) 03:25:12 145.827
M-CUBED/EXP-1 PRIME 30 Jan 03:22:25 03:24:21 13° 261° (W) 03:25:59 437.505
MOZHAYETS 4 30 Jan 03:22:50 03:27:04 38° 74° (ENE) 03:31:19
HORYU 2 30 Jan 03:23:16 03:27:39 62° 285° (WNW) 03:32:01 437.375
JAS-2 30 Jan 03:27:03 03:31:40 24° 96° (E) 03:36:56 435.910
AIST 2 30 Jan 03:31:06 03:32:48 12° 313° (NW) 03:34:18 435.215
DANDE 30 Jan 03:44:27 03:52:26 82° 96° (E) 04:01:11 436.750
Gurwin Techsat 1B 30 Jan 03:53:20 03:55:38 12° 294° (WNW) 03:57:37 435.225
CUSAT 1 30 Jan 04:08:55 04:16:52 60° 282° (WNW) 04:25:12 437.405
AO-7 30 Jan 04:15:26 04:23:47 80° 288° (WNW) 04:32:04 29.400- 29.500
ISS 30 Jan 04:43:26 04:46:39 52° 228° (SW) 04:49:51 145.825
PRISM 30 Jan 04:56:31 05:00:20 38° 74° (ENE) 05:04:10 437.425
RS-15 30 Jan 04:57:05 05:07:55 63° 303° (WNW) 05:18:46 29.354- 29.394
Cubesat XI-IV 30 Jan 05:00:02 05:03:45 20° 93° (E) 05:07:40 437.490
PCSat 30 Jan 05:00:22 05:03:46 16° 310° (NW) 05:06:59 145.827
MOZHAYETS 4 30 Jan 05:01:35 05:04:29 16° 268° (W) 05:07:10
JAS-2 30 Jan 05:11:22 05:16:52 43° 286° (WNW) 05:22:58 435.910
YUBILEINY 30 Jan 05:13:57 05:20:54 27° 71° (ENE) 05:28:11 435.215
CUBESAT XI-V 30 Jan 05:17:50 05:22:13 47° 74° (ENE) 05:26:39 437.345
CUTE-I 30 Jan 05:19:00 05:23:39 30° 96° (E) 05:28:23 437.470
DANDE 30 Jan 05:31:03 05:37:01 20° 295° (WNW) 05:42:44 436.750
VERMONT LUNAR 30 Jan 05:47:29 05:49:18 14° 142° (SE) 05:51:14 437.305
STRAND 1 30 Jan 05:48:00 05:53:04 74° 75° (ENE) 05:58:11 437.568
AO-7 30 Jan 06:11:09 06:15:31 15° 304° (WNW) 06:19:20 29.400- 29.500
PRISM 30 Jan 06:34:12 06:36:04 12° 268° (W) 06:37:43 437.425
Cubesat XI-IV 30 Jan 06:39:00 06:44:03 42° 288° (WNW) 06:49:04 437.490
PHONESAT 2.4 30 Jan 06:51:20 06:54:21 26° 145° (SE) 06:57:26 2401.200-2431.200
CUBESAT XI-V 30 Jan 06:57:50 07:00:00 13° 269° (W) 07:01:53 437.345
CUTE-I 30 Jan 06:59:07 07:03:39 28° 290° (WNW) 07:08:06 437.470
HO-68 30 Jan 07:02:05 07:04:32 12° 89° (E) 07:07:36 435.675
BRITE-PL 30 Jan 07:03:25 07:05:50 13° 88° (E) 07:08:34 437.365/2234.400
YUBILEINY 30 Jan 07:09:42 07:18:14 56° 268° (W) 07:26:42 435.215
RS-15 30 Jan 07:16:36 07:23:17 17° 330° (NNW) 07:29:33 29.354- 29.394
VERMONT LUNAR 30 Jan 07:23:38 07:27:06 87° 325° (NW) 07:30:36 437.305
COMPASS 1 30 Jan 07:43:14 07:44:46 12° 91° (E) 07:46:32 437.405
CANX-2 30 Jan 07:59:01 08:02:48 32° 97° (E) 08:06:37 2200.000
AAUSAT CUBESAT 2 30 Jan 08:07:16 08:10:26 21° 95° (E) 08:13:40 437.432
CINEMA 3 30 Jan 08:15:45 08:18:47 17° 91° (E) 08:21:54 145.822/145.860
CUTE 1.7 + AOD 2 30 Jan 08:22:42 08:26:53 60° 100° (E) 08:31:01 437.475
GOMX 1 30 Jan 08:28:58 08:34:20 72° 100° (E) 08:39:23 467.674
Oscar 11 30 Jan 08:29:06 08:32:01 18° 93° (E) 08:35:06 145.826/435.025
PHONESAT 2.4 30 Jan 08:29:16 08:32:47 54° 338° (NNW) 08:36:20 2401.200-2431.200
UNISAT 6 30 Jan 08:29:20 08:31:33 14° 69° (ENE) 08:34:02 437.425
DOVE 4 30 Jan 08:35:56 08:41:00 59° 99° (E) 08:45:46 437.250
BRITE-PL 30 Jan 08:39:21 08:44:56 64° 285° (WNW) 08:50:12 437.365/2234.400
HO-68 30 Jan 08:46:01 08:53:12 88° 286° (WNW) 09:00:23 435.675
SEEDS 30 Jan 08:51:45 08:55:55 69° 283° (WNW) 09:00:03 437.485
SO-50 30 Jan 08:58:41 09:02:58 47° 114° (ESE) 09:07:27 436.795
VERMONT LUNAR 30 Jan 09:02:30 09:05:30 26° 349° (N) 09:08:32 437.305
ANTELSAT 30 Jan 09:03:17 09:07:28 33° 73° (ENE) 09:11:42 437.575/2403.000
UKube-1 30 Jan 09:04:37 09:08:13 26° 96° (E) 09:11:54 .
NANOSAT C BR1 30 Jan 09:07:57 09:10:56 19° 71° (ENE) 09:14:04 145.865
TIGRISAT 30 Jan 09:10:08 09:14:29 38° 74° (ENE) 09:18:51 435.000
HUMSAT D 30 Jan 09:16:27 09:18:51 15° 92° (E) 09:21:25 437.325/437.525
COMPASS 1 30 Jan 09:16:50 09:20:44 40° 285° (WNW) 09:24:37 437.405
CUBEBUG 2 30 Jan 09:18:56 09:23:20 51° 99° (E) 09:27:34 437.445
ZACube-1 30 Jan 09:21:30 09:25:32 36° 97° (E) 09:29:29 437.345
QB50P2 30 Jan 09:22:13 09:25:53 29° 73° (ENE) 09:29:39 145.880/145.840
DX 1 30 Jan 09:26:20 09:30:37 50° 100° (E) 09:34:53 434.975-435.025
DELFI C3 30 Jan 09:30:27 09:34:30 89° 92° (E) 09:38:33 145.870
QB50P1 30 Jan 09:30:52 09:34:46 36° 74° (ENE) 09:38:44 145.935-145.965
FUNcube-1 30 Jan 09:32:53 09:37:08 49° 99° (E) 09:41:17 145.935
CANX-2 30 Jan 09:35:52 09:38:32 16° 290° (WNW) 09:41:01 2200.000
BUGSAT 1 30 Jan 09:36:39 09:40:14 30° 73° (ENE) 09:43:55 437.445
AAUSAT CUBESAT 2 30 Jan 09:42:44 09:46:03 23° 288° (WNW) 09:49:16 437.432
POLYITAN 1 30 Jan 09:46:08 09:50:21 58° 75° (ENE) 09:54:36 437.675
CINEMA 3 30 Jan 09:51:48 09:56:11 36° 287° (WNW) 10:00:20 145.822/145.860
UWE-3 30 Jan 09:56:24 10:00:50 66° 284° (WNW) 10:05:05 435.000/436.395/437.385
AISAT 30 Jan 09:56:37 10:00:52 40° 98° (E) 10:05:06 437.250
UNISAT 6 30 Jan 10:03:24 10:07:59 50° 261° (W) 10:12:34 437.425
AIST 1 30 Jan 10:03:56 10:07:24 25° 91° (E) 10:10:56
ESTCUBE 1 30 Jan 10:04:04 10:07:16 20° 94° (E) 10:10:38 437.505/2401.250
Oscar 11 30 Jan 10:04:32 10:08:16 29° 287° (WNW) 10:11:56 145.826/435.025
POPSAT HIP 1 30 Jan 10:05:26 10:09:42 82° 257° (WSW) 10:14:02 437.405
DUCHIFAT 1 30 Jan 10:07:23 10:11:38 79° 258° (WSW) 10:15:56 145.980
PHONESAT 2.4 30 Jan 10:08:48 10:11:49 24° 355° (N) 10:14:50 2401.200-2431.200
GOMX 1 30 Jan 10:09:41 10:11:49 12° 295° (WNW) 10:13:34 467.674
BEESAT 2 30 Jan 10:13:57 10:17:28 26° 54° (NE) 10:20:59 435.950
DOVE 4 30 Jan 10:15:42 10:18:14 13° 294° (WNW) 10:20:26 437.250
50 SAT 30 Jan 10:15:42 10:19:43 64° 100° (E) 10:23:40 437.505
AIST 2 30 Jan 10:17:27 10:19:15 13° 48° (NE) 10:21:13 435.215
VELOX 1 30 Jan 10:24:01 10:28:32 84° 102° (ESE) 10:33:01 145.980
BEESAT 3 30 Jan 10:26:31 10:30:27 41° 58° (ENE) 10:34:20 437.485
CUBEBUG 1 30 Jan 10:28:55 10:32:59 35° 98° (E) 10:37:05 437.445
HO-68 30 Jan 10:36:35 10:40:06 14° 300° (WNW) 10:43:11 435.675
SO-50 30 Jan 10:40:48 10:43:51 17° 312° (NW) 10:46:48 436.795
ANTELSAT 30 Jan 10:40:49 10:44:20 20° 266° (W) 10:47:42 437.575/2403.000
UKube-1 30 Jan 10:40:53 10:44:17 22° 289° (WNW) 10:47:34 .
VERMONT LUNAR 30 Jan 10:41:21 10:44:15 23° 6° (N) 10:47:09 437.305
NANOSAT C BR1 30 Jan 10:42:57 10:46:40 28° 264° (W) 10:50:20 145.865
TIGRISAT 30 Jan 10:48:15 10:51:24 17° 267° (W) 10:54:21 435.000
HUMSAT D 30 Jan 10:51:00 10:54:48 32° 287° (WNW) 10:58:29 437.325/437.525
CUBEBUG 2 30 Jan 10:57:51 10:59:36 12° 293° (WNW) 11:01:04 437.445
QB50P2 30 Jan 10:58:50 11:01:52 18° 266° (W) 11:04:47 145.880/145.840
ZACube-1 30 Jan 10:58:58 11:01:38 16° 291° (WNW) 11:04:06 437.345
DX 1 30 Jan 11:04:42 11:06:29 12° 292° (WNW) 11:08:02 434.975-435.025
QB50P1 30 Jan 11:08:23 11:10:51 14° 268° (W) 11:13:07 145.935-145.965
FUNcube-1 30 Jan 11:11:29 11:13:05 12° 292° (WNW) 11:14:25 145.935
BUGSAT 1 30 Jan 11:13:16 11:15:51 16° 267° (W) 11:18:17 437.445
GONETS M04 30 Jan 11:16:15 11:24:00 37° 75° (ENE) 11:31:55
AISAT 30 Jan 11:34:27 11:37:12 16° 291° (WNW) 11:39:46 437.250
ESTCUBE 1 30 Jan 11:40:14 11:44:13 30° 288° (WNW) 11:48:09 437.505/2401.250
AIST 1 30 Jan 11:42:00 11:45:05 19° 285° (WNW) 11:48:02
